N1SU-13 Weather Reports


time (UTC)temp
C
wind
direction
speed
KPH
gust
KPH
rain 1hr
cm
rain 24hr
cm
rain mn
cm
humidity
%
barometer
mb
20260503200213 22 0.0 0.0 0.00 0.00 0.00 53 1010.6
20260503195154 21 0.0 0.0 0.00 0.00 0.00 54 1010.9
20260503194141 21 0.0 0.0 0.00 0.00 0.00 56 1010.9
20260503193209 21 0.0 0.0 0.00 0.00 0.00 58 1011.1
20260503192247 21 0.0 0.0 0.00 0.00 0.00 58 1011.3
20260503191157 20 0.0 0.0 0.00 0.00 0.00 61 1011.5
20260503190151 20 0.0 0.0 0.00 0.00 0.00 61 1011.5
20260503185208 20 0.0 0.0 0.00 0.00 0.00 60 1011.6
20260503184116 20 0.0 0.0 0.00 0.00 0.00 59 1011.8
20260503183107 19 0.0 0.0 0.00 0.00 0.00 63 1011.9
20260503182103 18 0.0 0.0 0.00 0.00 0.00 64 1012.1
20260503181059 18 0.0 0.0 0.00 0.00 0.00 65 1012.2
20260503175959 18 0.0 0.0 0.00 0.00 0.00 67 1012.3
20260503175009 17 0.0 0.0 0.00 0.00 0.00 68 1012.5
20260503173848 17 0.0 0.0 0.00 0.00 0.00 70 1012.5
20260503172733 16 0.0 0.0 0.00 0.00 0.00 72 1012.7
20260503171618 16 0.0 0.0 0.00 0.00 0.00 73 1012.7
20260503170607 16 0.0 0.0 0.00 0.00 0.00 75 1012.8
20260503150627 13 0.0 0.0 0.00 0.00 0.00 75 1013.1
20260503131334 11 0.0 0.0 0.00 0.00 0.00 80 1013.2
20260503130315 11 0.0 0.0 0.00 0.00 0.00 79 1013.2
20260503120219 11 0.0 0.0 0.00 0.00 0.00 79 1013.3
20260503081541 13 0.0 0.0 0.00 0.00 0.00 69 1013.6
20260503080454 13 0.0 0.0 0.00 0.00 0.00 69 1013.5
20260503072234 14 0.0 0.0 0.00 0.00 0.00 67 1013.5
20260503071118 15 0.0 0.0 0.00 0.00 0.00 66 1013.4
20260503054501 16 0.0 0.0 0.00 0.00 0.00 61 1013.1
20260503053325 16 0.0 0.0 0.00 0.00 0.00 60 1013.1
20260503052339 17 0.0 0.0 0.00 0.00 0.00 60 1013.1
20260503051251 17 0.0 0.0 0.00 0.00 0.00 59 1013.0
20260503050116 17 0.0 0.0 0.00 0.00 0.00 59 1013.0
20260503045152 17 0.0 0.0 0.00 0.00 0.00 58 1013.0
20260503044055 18 0.0 0.0 0.00 0.00 0.00 58 1012.8
20260503042950 18 0.0 0.0 0.00 0.00 0.00 57 1012.7
20260503041956 18 0.0 0.0 0.00 0.00 0.00 56 1012.6
20260503041009 19 0.0 0.0 0.00 0.00 0.00 55 1012.5
20260503035905 19 0.0 0.0 0.00 0.00 0.00 54 1012.3
20260503034727 20 0.0 0.0 0.00 0.00 0.00 54 1012.1
20260503033637 20 0.0 0.0 0.00 0.00 0.00 53 1011.9
20260503032628 21 0.0 0.0 0.00 0.00 0.00 50 1011.8
20260503032216 21 0.0 0.0 0.00 0.00 0.00 51 1011.8
20260503031626 21 0.0 0.0 0.00 0.00 0.00 50 1011.7
20260503031209 21 0.0 0.0 0.00 0.00 0.00 49 1011.6
20260503030454 22 0.0 0.0 0.00 0.00 0.00 49 1011.5
20260503030210 22 0.0 0.0 0.00 0.00 0.00 48 1011.4
20260503025514 23 0.0 0.0 0.00 0.00 0.00 46 1011.1
20260503025218 24 0.0 0.0 0.00 0.00 0.00 46 1011.0
20260503024413 25 0.0 0.0 0.00 0.00 0.00 45 1010.9
20260503024238 25 0.0 0.0 0.00 0.00 0.00 46 1010.8
20260503023438 26 0.0 0.0 0.00 0.00 0.00 43 1010.5
20260503023354 26 0.0 0.0 0.00 0.00 0.00 42 1010.6
20260503022340 26 0.0 0.0 0.00 0.00 0.00 42 1010.5
20260503022207 26 0.0 0.0 0.00 0.00 0.00 42 1010.5
20260503022051 26 0.0 0.0 0.00 0.00 0.00 42 1010.5
20260503021936 26 0.0 0.0 0.00 0.00 0.00 41 1010.5
20260503021832 26 0.0 0.0 0.00 0.00 0.00 41 1010.6
20260503021720 26 0.0 0.0 0.00 0.00 0.00 41 1010.5
20260503021613 26 0.0 0.0 0.00 0.00 0.00 41 1010.5
20260503021503 26 0.0 0.0 0.00 0.00 0.00 41 1010.5
20260503021350 26 0.0 0.0 0.00 0.00 0.00 42 1010.4
20260503021246 26 0.0 0.0 0.00 0.00 0.00 41 1010.5
20260503021124 26 0.0 0.0 0.00 0.00 0.00 41
20260503021008 26 0.0 0.0 0.00 0.00 0.00 41 1010.5
20260503020854 26 0.0 0.0 0.00 0.00 0.00 41 1010.5
20260503020747 26 0.0 0.0 0.00 0.00 0.00 41 1010.5
20260503020643 26 0.0 0.0 0.00 0.00 0.00 41 1010.5
20260503020540 26 0.0 0.0 0.00 0.00 0.00 42 1010.5
20260503020433 26 0.0 0.0 0.00 0.00 0.00 42 1010.5
20260503020325 26 0.0 0.0 0.00 0.00 0.00 42 1010.5
20260503020206 26 0.0 0.0 0.00 0.00 0.00 42 1010.5
20260503020056 26 0.0 0.0 0.00 0.00 0.00 42 1010.6
20260503015948 26 0.0 0.0 0.00 0.00 0.00 41
20260503015829 26 0.0 0.0 0.00 0.00 0.00 41 1010.5
20260503015715 26 0.0 0.0 0.00 0.00 0.00 41 1010.5
20260503015606 26 0.0 0.0 0.00 0.00 0.00 41 1010.5
20260503015451 26 0.0 0.0 0.00 0.00 0.00 41 1010.4
20260503015345 26 0.0 0.0 0.00 0.00 0.00 39 1010.5
20260503015026 26 0.0 0.0 0.00 0.00 0.00 41 1010.5
20260503014102 26 0.0 0.0 0.00 0.00 0.00 40 1010.6
20260503012946 26 0.0 0.0 0.00 0.00 0.00 44 1010.5
20260503012003 25 0.0 0.0 0.00 0.00 0.00 46 1010.6
20260503010922 25 0.0 0.0 0.00 0.00 0.00 49 1010.7
20260503005903 24 0.0 0.0 0.00 0.00 0.00 49 1010.8
20260503004733 24 0.0 0.0 0.00 0.00 0.00 50 1010.8
20260503003621 24 0.0 0.0 0.00 0.00 0.00 51 1010.9
20260503002529 24 0.0 0.0 0.00 0.00 0.00 51 1011.0
20260503001542 23 0.0 0.0 0.00 0.00 0.00 52 1010.9
20260503000454 23 0.0 0.0 0.00 0.00 0.00 52 1011.0
20260502235518 23 0.0 0.0 0.00 0.00 0.00 53 1011.1
20260502234528 23 0.0 0.0 0.00 0.00 0.00 54 1011.3
20260502233434 23 0.0 0.0 0.00 0.00 0.00 54 1011.4
20260502232326 23 0.0 0.0 0.00 0.00 0.00 54 1011.6
20260502231620 22 0.0 0.0 0.00 0.00 0.00 55 1011.7
20260502230519 22 0.0 0.0 0.00 0.00 0.00 55 1011.8
20260502225531 22 0.0 0.0 0.00 0.00 0.00 56 1012.0
20260502224350 22 0.0 0.0 0.00 0.00 0.00 56 1012.2
20260502223319 22 0.0 0.0 0.00 0.00 0.00 56 1012.4
20260502222400 21 0.0 0.0 0.00 0.00 0.00 57 1012.5
20260502221251 21 0.0 0.0 0.00 0.00 0.00 57 1012.5
20260502220118 21 0.0 0.0 0.00 0.00 0.00 58 1012.6
20260502214957 21 0.0 0.0 0.00 0.00 0.00 59 1012.7
20260502213951 21 0.0 0.0 0.00 0.00 0.00 57 1012.8
20260502212901 21 0.0 0.0 0.00 0.00 0.00 56 1013.0
20260502211826 21 0.0 0.0 0.00 0.00 0.00 57 1013.1
20260502210803 20 0.0 0.0 0.00 0.00 0.00 58 1013.3
20260502205655 20 0.0 0.0 0.00 0.00 0.00 59 1013.4
20260502204655 20 0.0 0.0 0.00 0.00 0.00 61 1013.4
20260502203642 19 0.0 0.0 0.00 0.00 0.00 61 1013.6
20260502202704 19 0.0 0.0 0.00 0.00 0.00 62 1013.8
20260502201559 18 0.0 0.0 0.00 0.00 0.00 63 1013.8